Location: ???? ??
(36.0534°N, 43.5630°E)
Time: 15:56:29
(UTC+00:00)

SL-08 RB Rocket - Pass Details

Date: 18 September 2019
Orbit: 646 x 685 km, 97.9° (Epoch: 22 October)

Event Time Altitude Azimuth Distance (km) Brightness Sun altitude
Exits shadow 17:19:11 44° 15° (NNE) 945 4.4 -26.3°
Drops below altitude 10° 17:22:31 10° 355° (N) 2,137 6.6 -26.9°
Sets 17:24:47 0° 352° (N) 3,057 7.5 -27.3°
